Hurghada, Egypt

4:12 PM EET on January 17, 2018 (GMT +0200)
Hurghada

Weather History for HEGN - March, 2014

Change the Weather History Date:

Sunday, March 23, 2014

  Actual Average Record
Temperature  
Mean Temperature 74 °F -  
Max Temperature 86 °F 80 °F 93 °F (2008)
Min Temperature 62 °F 63 °F 53 °F (2009)
Cooling Degree Days 9    
Growing Degree Days 24 (Base 50)    
Moisture  
Dew Point 50 °F    
Average Humidity 42    
Maximum Humidity 53    
Minimum Humidity 21    
Precipitation  
Precipitation 0.00 in - - ()
Sea Level Pressure  
Sea Level Pressure 29.83 in    
Wind  
Wind Speed 9 mph ()    
Max Wind Speed 18 mph    
Max Gust Speed -    
Visibility 6.0 miles    
Events      
Averages and records for this station are not official NWS values.
T = Trace of Precipitation, MM = Missing Value Source: Averaged Metar Reports

Daily Weather History Graph

Daily Weather History Graph

Search for Another Location

Airport or City:

Trip Planner

Search our weather history database for the weather conditions in past years. The results will help you decide how hot, cold, wet, or windy it might be!

Date:

Astronomy

Mar. 23, 2014 Rise Set
Actual Time 5:46 AM EET 5:57 PM EET
Civil Twilight 5:22 AM EET 6:21 PM EET
Nautical Twilight 4:55 AM EET 6:48 PM EET
Astronomical Twilight 4:28 AM EET 7:15 PM EET
Moon No Moon Rise 10:32 AM EET (3/23)
Length of Visible Light 12h 58m
Length of Day
12h 11m
Waning Gibbous, 57% of the Moon is Illuminated
Mar 23
Waning Gibbous
Mar 24
Last Quarter
Mar 30
New
Apr 7
First Quarter
Apr 15
Full

Hourly Weather History & Observations

Time (EET) Temp. Heat Index Dew Point Humidity Pressure Visibility Wind Dir Wind Speed Gust Speed Precip Events Conditions
12:00 AM 69.8 °F - 44.6 °F 40% 29.89 in - North 9.2 mph - N/A   Clear
1:00 AM 68.0 °F - 42.8 °F 40% 29.86 in - NW 8.1 mph - N/A   Clear
2:00 AM 66 °F - 42 °F 31% 29.86 in 6 mi NNW 5.8 mph - -  
2:00 AM 66.2 °F - 42.8 °F 43% 29.83 in - NNW 5.8 mph - N/A   Clear
3:00 AM 66.2 °F - 42.8 °F 43% 29.83 in - NW 8.1 mph - N/A   Clear
4:00 AM 64.4 °F - 44.6 °F 49% 29.83 in - NNW 9.2 mph - N/A   Clear
5:00 AM 64 °F - 45 °F 38% 29.85 in 6 mi NNW 9.2 mph - -  
5:00 AM 64.4 °F - 44.6 °F 49% 29.83 in - NNW 9.2 mph - N/A   Clear
6:00 AM 62.6 °F - 44.6 °F 52% 29.86 in - NW 9.2 mph - N/A   Clear
7:00 AM 64.4 °F - 44.6 °F 49% 29.86 in - NW 6.9 mph - N/A   Clear
8:00 AM 70 °F - 50 °F 37% 29.88 in 6 mi NNW 11.5 mph - -  
8:00 AM 69.8 °F - 50.0 °F 49% 29.86 in - NNW 11.5 mph - N/A   Clear
9:00 AM 73.4 °F - 53.6 °F 50% 29.89 in - North 13.8 mph - N/A   Clear
10:00 AM 77.0 °F - 53.6 °F 44% 29.89 in - North 17.3 mph - N/A   Clear
11:00 AM 79 °F - 56 °F 35% 29.87 in 6 mi North 15.0 mph - -  
11:00 AM 78.8 °F - 57.2 °F 47% 29.86 in - North 15.0 mph - N/A   Clear
12:00 PM 80.6 °F 81.1 °F 59.0 °F 48% 29.83 in - North 13.8 mph - N/A   Clear
1:00 PM 84.2 °F 83.8 °F 59.0 °F 42% 29.80 in - North 15.0 mph - N/A   Clear
2:00 PM 86 °F - 56 °F 25% 29.78 in 6 mi NNE 9.2 mph - -  
2:00 PM 86.0 °F 84.5 °F 55.4 °F 35% 29.77 in - NNE 9.2 mph - N/A   Clear
3:00 PM 82.4 °F 82.9 °F 60.8 °F 48% 29.77 in - North 10.4 mph - N/A   Clear
4:00 PM 78.8 °F - 59.0 °F 51% 29.77 in - North 11.5 mph - N/A   Clear
5:00 PM 78 °F - 59 °F 41% 29.81 in 6 mi West 12.7 mph - -   Mostly Cloudy
5:00 PM 78.8 °F - 59.0 °F 51% 29.80 in - North 12.7 mph - N/A   Clear
6:00 PM 77.0 °F - 57.2 °F 50% 29.77 in - North 18.4 mph - N/A   Clear
7:00 PM 75.2 °F - 57.2 °F 53% 29.80 in - NW 11.5 mph - N/A   Clear
8:00 PM 76 °F - 44 °F 21% 29.82 in 6 mi NW 9.2 mph - -  
8:00 PM 75.2 °F - 44.6 °F 34% 29.80 in - NW 9.2 mph - N/A   Clear
9:00 PM 75.2 °F - 46.4 °F 36% 29.83 in - NW 10.4 mph - N/A   Clear
10:00 PM 71.6 °F - 46.4 °F 41% 29.83 in - WNW 11.5 mph - N/A   Clear
11:00 PM 70 °F - 46 °F 31% 29.84 in 6 mi WNW 11.5 mph - -  
11:00 PM 69.8 °F - 46.4 °F 43% 29.83 in - WNW 11.5 mph - N/A   Clear